Location: Campillo
(40.8621°N, 4.2488°W)
Time: 01:06:41
(UTC+00:00)

USA 308 - Pass Details

Date: 27 September 2021
Orbit: 566 x 573 km, 54.0° (Epoch: 23 September)

Event Time Altitude Azimuth Distance (km) Brightness Sun altitude
Rises 21:04:16 0° 311° (NW) 2,772 7.5 -33.3°
Reaches altitude 10° 21:06:32 10° 312° (NW) 1,873 6.3 -33.7°
Enters shadow 21:07:47 19° 314° (NW) 1,390 5.5 -33.9°
